Wind_Speed
2 2 3 2 3 3 3 3 3 3 3 4 4 4 4 5 5 5 4 4 4 4 5 5 5 5 6 6 6 6 6 7 7 8 8 7 7 8 8 8 9 9 10
3 3 3 2 2 3 4 4 3 3 3 4 4 5 6 6 6 6 6 6 5 5 5 5 6 6 6 7 7 7 7 8 8 8 8 8 8 8 8 9 9 9 9
3 3 2 3 2 3 3 4 3 3 3 4 5 6 6 5 5 5 5 5 5 6 6 7 7 7 7 7 8 8 9 9 10 10 9 9 10 10 9 10 10 10 10
3 3 3 3 3 3 2 3 3 4 4 5 6 6 6 6 6 6 6 6 6 7 7 8 8 8 8 9 9 9 10 10 10 11 11 11 11 11 11 11 11 11 11
3 3 2 3 3 3 3 3 4 5 6 6 6 6 6 6 6 6 6 6 7 8 9 9 10 10 10 10 10 10 10 11 11 12 12 12 12 12 13 12 12 13 13
2 3 2 3 3 3 3 3 4 5 7 7 6 6 6 5 6 6 6 7 8 9 10 10 11 11 11 11 11 11 11 11 12 13 13 13 13 14 13 14 13 13 14
3 3 3 3 3 3 3 4 4 5 6 6 6 6 6 6 6 6 7 8 8 9 10 10 10 11 11 11 11 12 13 13 13 13 13 14 14 15 14 14 14 14 15
4 4 4 3 4 4 4 4 5 6 6 6 6 6 6 7 7 7 7 8 9 10 11 11 11 11 12 11 12 12 13 14 14 14 14 14 15 15 15 15 16 16 16
4 4 4 4 4 4 5 5 6 7 7 7 7 7 7 7 7 8 8 9 10 10 11 12 12 12 13 13 13 13 13 14 14 15 15 15 15 15 15 15 16 17 17
5 5 5 5 5 5 6 6 7 7 8 8 8 8 8 8 8 9 10 10 11 11 11 12 12 12 12 13 13 13 13 15 14 15 16 16 16 16 16 17 17 17 17
5 5 5 5 6 6 7 8 8 8 9 9 9 8 9 9 10 10 11 11 12 12 12 12 12 12 13 14 14 14 14 14 15 16 17 17 17 17 17 18 18 17 17
5 5 5 5 6 7 7 8 8 9 9 9 9 9 9 10 11 11 12 12 13 13 12 13 13 13 13 14 14 15 15 15 15 16 17 17 18 18 18 19 19 19 18
6 6 6 6 7 7 8 8 9 10 10 11 11 12 11 11 11 12 12 13 13 13 13 13 14 14 14 15 15 15 15 16 17 18 18 18 19 19 19 19 20 20 19
6 7 7 8 8 9 9 10 11 12 12 13 13 13 13 13 13 13 14 14 14 14 14 14 14 15 16 16 16 16 16 17 17 18 18 19 19 20 20 20 20 19 19
7 7 8 9 10 11 12 12 13 14 14 14 14 14 14 15 15 15 15 16 15 15 15 15 16 16 16 16 17 17 18 18 18 18 19 19 20 20 21 21 20 19 20
9 10 10 10 11 12 13 14 14 14 15 15 15 15 15 16 17 17 17 17 16 16 16 16 17 18 18 18 19 18 18 18 18 18 18 19 20 20 21 21 21 21 21
11 11 11 12 13 13 14 15 15 16 16 16 16 17 18 18 18 18 19 19 18 17 17 18 19 19 20 20 19 19 19 19 19 19 19 19 20 20 21 21 21 21 22
13 13 13 14 15 15 16 16 16 17 17 18 18 19 19 19 19 19 20 21 20 19 19 19 20 21 21 21 20 21 20 20 19 19 20 20 20 21 21 21 22 22 23
15 14 14 15 16 17 17 18 18 18 19 20 20 20 20 20 20 20 21 21 21 22 21 21 22 22 22 21 21 21 21 20 20 20 21 22 21 21 22 22 21 22 22
16 16 17 17 17 18 19 20 20 20 21 22 22 21 21 21 22 22 22 21 22 23 23 23 23 23 22 22 21 21 21 21 21 21 21 22 22 22 22 21 21 20 21
17 18 19 19 19 19 20 21 21 22 23 23 23 22 22 22 23 23 22 23 23 24 24 24 24 24 24 23 22 22 22 22 22 22 22 21 21 21 21 20 20 19 20
18 19 20 21 21 21 22 22 23 23 24 24 23 23 24 24 24 24 24 24 24 25 25 24 25 25 24 23 23 23 23 23 23 23 22 22 21 21 21 20 19 19 19
20 21 21 22 22 22 23 24 23 24 25 25 25 25 25 25 24 24 25 26 26 26 25 24 24 24 23 23 24 24 24 23 23 23 22 22 22 21 21 20 19 20 20
23 23 23 23 23 23 24 24 25 25 25 25 25 26 26 26 26 26 26 26 27 26 26 25 24 23 23 24 23 23 22 22 22 22 22 21 21 21 20 20 19 20 19
24 24 24 24 24 25 25 25 26 26 26 26 26 26 26 26 26 27 26 26 26 26 25 25 24 23 23 23 23 22 21 21 21 21 20 20 20 20 20 19 19 19 19
25 26 26 25 25 25 25 26 27 27 27 28 28 27 27 27 27 27 26 26 26 25 25 24 24 24 24 23 23 22 22 22 21 20 20 20 20 20 19 20 20 20 20
Wind_Direction
1 343 344 326 338 335 324 315 309 318 312 310 308 307 304 295 289 285 285 278 270 265 261 260 265 271 270 267 262 268 269 267 268 266 267 267 264 264 264 264 261 264 260
359 351 339 345 352 339 320 311 304 318 316 318 319 312 306 300 289 282 273 271 271 267 266 269 272 273 271 264 262 269 270 271 270 267 268 270 269 268 268 266 266 265 265
356 349 334 340 341 336 343 346 342 341 334 327 325 320 316 313 296 292 277 271 273 271 272 279 279 275 268 264 266 270 272 270 271 269 268 271 270 269 269 273 272 267 266
347 342 338 342 338 323 325 332 334 333 329 319 316 316 315 312 307 300 290 281 281 280 280 283 279 277 270 268 269 271 271 273 274 271 270 271 271 270 269 269 271 269 265
348 341 336 334 328 320 313 311 319 324 319 316 318 319 317 310 305 302 299 291 286 284 283 282 281 279 272 269 270 271 271 269 272 273 269 269 271 270 271 269 271 268 267
330 331 317 327 333 333 324 319 323 326 322 318 321 318 314 307 305 303 301 299 297 291 288 284 282 279 273 269 271 271 269 268 272 272 270 270 271 271 271 270 271 268 267
319 325 316 326 336 338 334 333 330 329 325 322 319 316 312 305 300 303 302 298 296 292 288 285 284 282 282 274 275 273 270 269 268 268 266 266 269 270 270 269 271 269 269
307 321 328 331 324 327 323 323 325 325 322 319 315 309 307 303 300 299 296 295 293 291 288 286 280 279 281 279 278 272 270 268 267 267 267 269 270 270 268 267 269 268 267
303 303 315 315 312 314 314 324 330 324 317 311 309 306 299 296 296 297 296 296 294 293 290 291 287 283 279 274 270 273 270 269 269 268 269 269 270 271 270 268 270 270 270
298 293 300 297 303 309 314 319 321 320 317 314 309 306 303 299 298 296 297 296 295 295 293 295 292 289 283 278 276 275 274 273 271 270 271 271 271 273 274 272 271 272 272
294 291 289 287 299 304 306 308 309 311 313 313 311 305 305 303 301 298 298 296 296 296 294 294 292 292 290 287 283 279 280 276 274 273 271 271 273 274 275 273 272 271 272
285 287 288 287 296 298 299 300 303 307 312 314 315 309 306 305 301 298 297 295 295 294 294 294 293 292 292 290 287 284 281 280 278 275 272 274 277 276 276 275 273 272 271
281 286 289 287 296 297 296 298 301 304 308 312 314 313 308 305 302 297 296 295 293 293 295 297 296 295 293 290 287 286 283 280 278 277 275 275 277 277 275 277 275 273 271
288 287 288 287 294 298 299 299 300 303 305 309 311 310 312 309 304 300 299 297 295 294 296 299 299 297 295 294 291 289 286 283 279 279 277 277 277 276 275 275 275 272 271
290 287 292 294 294 295 297 301 304 304 304 307 310 308 309 308 305 302 298 295 294 295 294 295 296 296 295 294 293 289 288 285 282 281 279 279 279 277 276 275 273 270 270
290 288 291 294 297 297 297 299 302 303 303 305 307 306 305 304 302 301 299 297 295 293 293 294 293 295 293 294 294 291 288 287 283 281 281 280 279 279 277 274 273 269 269
287 287 289 292 294 296 297 298 299 301 301 302 302 301 301 302 302 299 299 297 297 294 292 293 292 293 292 294 294 291 290 288 285 281 280 281 281 282 277 274 271 270 268
286 286 288 290 292 293 295 297 298 299 299 298 298 297 297 298 297 297 297 296 295 295 294 293 292 292 291 290 290 289 288 289 286 283 281 280 280 280 278 275 273 272 270
289 290 291 289 290 293 295 297 298 299 298 298 296 295 296 296 295 295 296 294 293 294 294 294 294 294 292 289 289 286 285 285 284 282 283 282 282 280 278 275 275 271 269
289 290 289 289 291 294 296 298 298 298 298 298 298 298 297 295 294 294 294 294 292 292 292 292 292 291 290 288 286 285 285 284 284 283 281 281 282 281 277 275 274 271 270
287 290 290 292 292 294 296 298 298 298 298 296 296 296 297 297 296 294 292 292 292 293 292 291 289 288 288 286 284 284 284 283 283 282 280 279 281 281 280 277 273 272 272
287 290 291 291 291 293 295 296 297 297 297 296 294 293 294 295 295 293 292 292 292 293 293 291 289 288 286 285 284 283 283 282 282 282 280 278 281 282 281 277 275 274 272
288 290 291 290 290 292 294 295 296 297 296 296 295 293 293 293 292 290 290 290 291 292 291 290 289 288 286 285 285 283 283 282 281 282 281 279 279 278 277 275 275 275 275
289 289 288 289 289 289 293 293 294 295 296 295 295 293 292 292 293 293 291 289 290 290 289 289 288 288 287 286 286 284 283 282 281 282 282 281 279 278 276 275 274 274 273
289 289 287 289 290 290 292 295 296 296 295 294 293 292 291 293 293 293 293 290 289 288 287 287 286 286 285 285 285 284 283 282 282 282 282 282 279 275 276 276 274 271 272
288 288 287 288 290 293 294 295 295 294 293 292 291 290 291 292 292 292 291 290 288 286 285 285 285 284 284 283 283 282 281 283 283 280 280 282 280 277 276 275 274 272 272
Height
5899 5899 5899 5900 5899 5899 5899 5898 5898 5897 5897 5896 5895 5895 5894 5893 5893 5892 5892 5892 5891 5891 5891 5890 5890 5890 5890 5889 5889 5889 5888 5888 5888 5887 5887 5887 5887 5887 5886 5886 5886 5885 5885
5899 5899 5899 5899 5899 5898 5898 5897 5897 5897 5896 5895 5895 5894 5893 5891 5891 5890 5890 5890 5889 5889 5889 5889 5889 5888 5888 5887 5887 5887 5887 5886 5886 5885 5885 5885 5885 5884 5884 5884 5883 5883 5883
5899 5898 5898 5898 5897 5897 5897 5897 5896 5895 5895 5894 5893 5892 5891 5890 5889 5888 5888 5888 5887 5887 5887 5887 5886 5886 5886 5885 5885 5884 5884 5884 5883 5883 5883 5882 5882 5882 5881 5881 5881 5880 5880
5898 5898 5897 5897 5896 5896 5896 5896 5895 5895 5894 5893 5892 5890 5889 5888 5887 5887 5886 5885 5885 5885 5885 5884 5884 5883 5883 5882 5882 5882 5881 5881 5881 5880 5880 5880 5879 5879 5878 5878 5878 5878 5877
5897 5897 5896 5896 5895 5895 5895 5894 5894 5893 5893 5891 5890 5889 5887 5886 5885 5885 5884 5883 5883 5883 5882 5882 5881 5881 5880 5879 5879 5878 5878 5878 5878 5877 5877 5877 5876 5876 5876 5875 5875 5875 5874
5896 5896 5895 5895 5894 5894 5894 5893 5892 5892 5891 5889 5888 5887 5886 5885 5884 5883 5883 5882 5881 5881 5880 5879 5878 5877 5876 5876 5876 5875 5875 5875 5874 5874 5874 5873 5873 5873 5872 5872 5871 5871 5871
5895 5895 5894 5894 5894 5893 5893 5892 5891 5890 5889 5888 5887 5886 5884 5883 5882 5882 5881 5880 5879 5878 5877 5877 5876 5875 5873 5872 5872 5872 5871 5871 5871 5870 5870 5870 5870 5869 5869 5868 5868 5867 5867
5895 5894 5893 5893 5892 5892 5892 5891 5890 5889 5888 5886 5885 5884 5883 5883 5881 5880 5879 5878 5877 5876 5875 5874 5873 5872 5871 5870 5869 5868 5868 5867 5867 5867 5866 5866 5865 5865 5864 5864 5863 5863 5862
5894 5893 5892 5892 5891 5891 5890 5889 5888 5887 5886 5885 5884 5883 5882 5881 5879 5879 5877 5876 5875 5874 5873 5871 5870 5869 5867 5866 5865 5865 5864 5863 5863 5863 5862 5862 5861 5860 5860 5859 5859 5858 5857
5892 5892 5891 5890 5889 5889 5888 5887 5886 5885 5884 5883 5882 5881 5880 5878 5877 5876 5875 5874 5873 5871 5870 5868 5867 5865 5864 5863 5862 5861 5860 5860 5859 5859 5858 5857 5857 5856 5855 5855 5854 5854 5853
5891 5890 5889 5889 5888 5887 5886 5885 5884 5883 5882 5881 5880 5878 5877 5876 5875 5874 5873 5871 5870 5868 5867 5865 5864 5862 5861 5860 5859 5857 5856 5856 5855 5854 5854 5853 5853 5852 5851 5850 5849 5849 5848
5889 5888 5887 5887 5886 5885 5884 5884 5882 5881 5880 5879 5877 5876 5875 5873 5872 5871 5869 5868 5866 5865 5863 5862 5860 5859 5857 5856 5855 5854 5853 5852 5851 5850 5849 5848 5848 5847 5846 5845 5844 5844 5843
5887 5887 5886 5885 5884 5883 5882 5881 5880 5879 5877 5876 5875 5873 5872 5870 5869 5867 5866 5864 5863 5861 5860 5858 5857 5855 5853 5852 5851 5849 5848 5847 5846 5845 5844 5844 5843 5842 5841 5840 5839 5838 5838
5885 5885 5884 5883 5882 5881 5880 5879 5878 5876 5875 5873 5871 5870 5868 5867 5865 5863 5862 5861 5859 5857 5856 5855 5853 5851 5850 5848 5846 5845 5843 5842 5841 5840 5839 5838 5838 5837 5836 5835 5834 5833 5833
5884 5882 5882 5881 5880 5879 5877 5876 5875 5873 5872 5870 5868 5867 5865 5863 5861 5860 5858 5857 5855 5854 5852 5850 5849 5847 5845 5844 5842 5840 5839 5837 5836 5835 5834 5833 5832 5831 5830 5829 5828 5828 5827
5881 5880 5879 5878 5877 5876 5875 5873 5872 5870 5868 5866 5865 5863 5861 5859 5857 5855 5853 5852 5850 5849 5848 5846 5844 5842 5841 5839 5837 5835 5834 5832 5831 5830 5829 5827 5826 5825 5824 5823 5823 5822 5821
5878 5877 5876 5875 5874 5873 5871 5870 5868 5866 5864 5862 5861 5859 5857 5855 5853 5851 5849 5847 5845 5844 5842 5841 5839 5837 5835 5834 5832 5830 5828 5827 5826 5824 5823 5822 5821 5819 5818 5817 5816 5816 5815
5875 5874 5873 5871 5870 5869 5867 5866 5864 5862 5860 5858 5856 5854 5852 5850 5848 5846 5844 5842 5840 5838 5837 5835 5833 5831 5830 5828 5826 5824 5823 5822 5820 5819 5818 5816 5815 5813 5812 5811 5810 5809 5809
5871 5869 5869 5867 5866 5865 5863 5861 5859 5857 5855 5853 5851 5849 5847 5845 5843 5841 5839 5837 5834 5833 5831 5830 5828 5826 5824 5822 5820 5818 5817 5816 5815 5813 5812 5810 5809 5807 5806 5804 5803 5803 5802
5866 5865 5864 5863 5861 5860 5858 5856 5854 5852 5850 5848 5845 5843 5841 5839 5837 5835 5833 5831 5829 5827 5825 5823 5821 5819 5818 5815 5814 5813 5811 5810 5808 5807 5805 5804 5803 5801 5800 5798 5797 5797 5796
5861 5859 5858 5857 5856 5854 5852 5850 5848 5846 5843 5841 5839 5837 5835 5832 5830 5828 5826 5824 5822 5820 5818 5816 5814 5813 5811 5809 5808 5806 5805 5804 5802 5800 5799 5798 5797 5795 5794 5792 5792 5791 5790
5855 5854 5852 5851 5849 5848 5846 5844 5841 5839 5837 5834 5832 5829 5827 5825 5823 5821 5819 5817 5815 5813 5811 5809 5807 5805 5804 5803 5801 5799 5798 5797 5796 5795 5793 5792 5791 5790 5788 5787 5786 5785 5784
5849 5848 5846 5845 5843 5841 5839 5837 5835 5832 5830 5827 5825 5822 5820 5818 5816 5814 5812 5810 5808 5806 5804 5802 5800 5798 5797 5795 5794 5792 5791 5790 5789 5787 5786 5785 5784 5783 5782 5781 5780 5779 5778
5843 5841 5840 5838 5836 5834 5832 5829 5827 5825 5823 5820 5818 5815 5813 5811 5808 5806 5804 5802 5800 5798 5796 5794 5793 5791 5789 5788 5787 5786 5784 5783 5781 5780 5779 5778 5777 5776 5775 5774 5773 5773 5772
5837 5835 5833 5831 5829 5827 5825 5822 5820 5818 5815 5813 5810 5808 5805 5803 5801 5798 5796 5794 5792 5790 5789 5787 5785 5784 5782 5781 5779 5778 5777 5776 5775 5774 5772 5771 5770 5770 5769 5768 5767 5767 5766
5829 5827 5826 5824 5822 5820 5818 5815 5813 5810 5808 5805 5803 5800 5798 5795 5793 5790 5788 5786 5784 5782 5781 5780 5778 5776 5775 5773 5772 5771 5770 5769 5768 5767 5766 5765 5764 5763 5762 5762 5761 5761 5760